C/2019 A5 ( PanSTARRS )

Japanese version
Home page
Updated on March 31, 2019

---------------------------------------------------------------------

* Profile

Discovery Date January 4, 2019
Magnitude 20.4 mag
Discoverer Pan-STARRS 1 telescope (Haleakala)

* Pictures

* Orbital Elements

Epoch 2019 June 6.0 TT = JDT 2458640.5
T 2019 June  9.54522 TT                                 MPCW
q   6.3237793            (2000.0)            P               Q
n   0.00979096     Peri.  356.04760     -0.81856793     -0.26733083
a  21.6397577      Node   146.62080     +0.54909693     -0.62402768
e   0.7077703      Incl.   67.53053     +0.16863898     +0.73425042
P 101
From 36 observations 2019 Jan. 4-Mar. 9, mean residual 0".2.

* Magnitudes Graph

        m1 = 9.0 + 5 log d + 10.0 log r

---------------------------------------------------------------------

The orbital elements are published on M.P.E.C. 2019-F125.
The magnitudes graphs are made with Comet for Windows.

---------------------------------------------------------------------

Copyright(C) Seiichi Yoshida (comet@aerith.net). All rights reserved.